Time,TemperatureF,DewpointF,PressureIn,WindDirection,WindDirectionDegrees,WindSpeedMPH,WindSpeedGustMPH,Humidity,HourlyPrecipIn,Conditions,Clouds,dailyrainin,SoftwareType,DateUTC
2013-02-15 00:02:00,39.0,30.0,-100.00,NNW,343,12.0,21.0,67,0.00,,,-99.99,,2013-02-15 05:02:00,
2013-02-15 00:12:00,38.0,30.0,-100.00,NW,319,11.0,21.0,68,0.00,,,-99.99,,2013-02-15 05:12:00,
2013-02-15 00:22:00,38.0,30.0,-100.00,NNW,345,11.0,21.0,69,0.00,,,-99.99,,2013-02-15 05:22:00,
2013-02-15 00:32:00,38.0,30.0,-100.00,NW,323,8.0,21.0,69,0.00,,,-99.99,,2013-02-15 05:32:00,
2013-02-15 00:42:00,37.0,28.0,-100.00,NW,310,6.0,21.0,69,0.00,,,-99.99,,2013-02-15 05:42:00,
2013-02-15 00:52:00,37.0,28.0,-100.00,NW,317,6.0,21.0,71,0.00,,,-99.99,,2013-02-15 05:52:00,
2013-02-15 01:02:00,35.0,28.0,-100.00,NW,316,5.0,21.0,72,0.00,,,-99.99,,2013-02-15 06:02:00,
2013-02-15 01:11:00,34.0,27.0,-100.00,WNW,300,4.0,21.0,72,0.00,,,-99.99,,2013-02-15 06:11:00,
2013-02-15 01:22:00,33.0,27.0,-100.00,WNW,286,4.0,21.0,73,0.00,,,-99.99,,2013-02-15 06:22:00,
2013-02-15 01:32:00,34.0,28.0,-100.00,SW,217,4.0,21.0,75,0.00,,,-99.99,,2013-02-15 06:32:00,
2013-02-15 01:42:00,34.0,27.0,-100.00,WNW,286,3.0,21.0,75,0.00,,,-99.99,,2013-02-15 06:42:00,
2013-02-15 01:52:00,34.0,28.0,-100.00,WNW,296,4.0,21.0,75,0.00,,,-99.99,,2013-02-15 06:52:00,
2013-02-15 02:01:00,34.0,28.0,-100.00,NW,306,4.0,21.0,76,0.00,,,-99.99,,2013-02-15 07:01:00,
2013-02-15 02:11:00,34.0,28.0,-100.00,NW,304,4.0,21.0,76,0.00,,,-99.99,,2013-02-15 07:11:00,
2013-02-15 02:21:00,34.0,28.0,-100.00,NW,316,4.0,21.0,76,0.00,,,-99.99,,2013-02-15 07:21:00,
2013-02-15 02:32:00,34.0,28.0,-100.00,NW,324,4.0,21.0,76,0.00,,,-99.99,,2013-02-15 07:32:00,
2013-02-15 02:42:00,34.0,28.0,-100.00,NW,317,5.0,21.0,76,0.00,,,-99.99,,2013-02-15 07:42:00,
2013-02-15 02:52:00,34.0,28.0,-100.00,NNW,347,5.0,21.0,76,0.00,,,-99.99,,2013-02-15 07:52:00,
2013-02-15 03:01:00,34.0,28.0,-100.00,NNW,344,6.0,21.0,76,0.00,,,-99.99,,2013-02-15 08:01:00,
2013-02-15 03:11:00,34.0,28.0,-100.00,NNW,347,9.0,21.0,75,0.00,,,-99.99,,2013-02-15 08:11:00,
2013-02-15 03:21:00,34.0,27.0,-100.00,North,352,11.0,21.0,73,0.00,,,-99.99,,2013-02-15 08:21:00,
2013-02-15 03:32:00,34.0,27.0,-100.00,NNW,341,11.0,21.0,71,0.00,,,-99.99,,2013-02-15 08:32:00,
2013-02-15 03:42:00,34.0,25.0,-100.00,NNW,347,9.0,21.0,68,0.00,,,-99.99,,2013-02-15 08:42:00,
2013-02-15 03:52:00,33.0,25.0,-100.00,NNW,345,7.0,21.0,69,0.00,,,-99.99,,2013-02-15 08:52:00,
2013-02-15 04:02:00,33.0,25.0,-100.00,North,350,6.0,21.0,71,0.00,,,-99.99,,2013-02-15 09:02:00,
2013-02-15 04:12:00,33.0,25.0,-100.00,NNW,348,6.0,21.0,71,0.00,,,-99.99,,2013-02-15 09:12:00,
2013-02-15 04:22:00,32.0,25.0,-100.00,East,87,6.0,21.0,72,0.00,,,-99.99,,2013-02-15 09:22:00,
2013-02-15 04:32:00,32.0,25.0,-100.00,NNW,331,6.0,21.0,72,0.00,,,-99.99,,2013-02-15 09:32:00,
2013-02-15 04:42:00,32.0,25.0,-100.00,NNW,331,5.0,21.0,73,0.00,,,-99.99,,2013-02-15 09:42:00,
2013-02-15 04:52:00,33.0,27.0,-100.00,NW,324,3.0,21.0,75,0.00,,,-99.99,,2013-02-15 09:52:00,
2013-02-15 05:01:00,32.0,27.0,-100.00,NNW,328,3.0,21.0,76,0.00,,,-99.99,,2013-02-15 10:01:00,
2013-02-15 05:11:00,31.0,25.0,-100.00,NNW,331,4.0,21.0,73,0.00,,,-99.99,,2013-02-15 10:11:00,
2013-02-15 05:21:00,33.0,27.0,-100.00,NW,323,4.0,21.0,75,0.00,,,-99.99,,2013-02-15 10:21:00,
2013-02-15 05:32:00,34.0,27.0,-100.00,NNW,333,4.0,21.0,75,0.00,,,-99.99,,2013-02-15 10:32:00,
2013-02-15 05:42:00,33.0,27.0,-100.00,NNW,328,4.0,21.0,75,0.00,,,-99.99,,2013-02-15 10:42:00,
2013-02-15 05:52:00,33.0,27.0,-100.00,WNW,302,5.0,21.0,73,0.00,,,-99.99,,2013-02-15 10:52:00,
2013-02-15 06:01:00,32.0,27.0,-100.00,NW,312,4.0,21.0,75,0.00,,,-99.99,,2013-02-15 11:01:00,
2013-02-15 06:11:00,33.0,27.0,-100.00,NNW,328,4.0,21.0,75,0.00,,,-99.99,,2013-02-15 11:11:00,
2013-02-15 06:23:00,33.0,27.0,-100.00,NW,306,4.0,21.0,75,0.00,,,-99.99,,2013-02-15 11:23:00,
2013-02-15 06:32:00,32.0,27.0,-100.00,NW,309,4.0,21.0,76,0.00,,,-99.99,,2013-02-15 11:32:00,
2013-02-15 06:42:00,33.0,27.0,-100.00,NW,316,2.0,21.0,76,0.00,,,-99.99,,2013-02-15 11:42:00,
2013-02-15 06:52:00,32.0,27.0,-100.00,NW,316,4.0,21.0,75,0.00,,,-99.99,,2013-02-15 11:52:00,
2013-02-15 07:02:00,31.0,23.0,-100.00,NW,317,4.0,21.0,73,0.00,,,-99.99,,2013-02-15 12:02:00,
2013-02-15 07:11:00,33.0,27.0,-100.00,NNW,347,4.0,21.0,75,0.00,,,-99.99,,2013-02-15 12:11:00,
2013-02-15 07:22:00,32.0,25.0,-100.00,NW,314,4.0,21.0,72,0.00,,,-99.99,,2013-02-15 12:22:00,
2013-02-15 07:32:00,34.0,27.0,-100.00,North,354,4.0,21.0,73,0.00,,,-99.99,,2013-02-15 12:32:00,
2013-02-15 07:42:00,33.0,25.0,-100.00,NNW,331,4.0,21.0,72,0.00,,,-99.99,,2013-02-15 12:42:00,
2013-02-15 07:52:00,31.0,23.0,-100.00,NNW,334,3.0,21.0,72,0.00,,,-99.99,,2013-02-15 12:52:00,
2013-02-15 08:02:00,33.0,27.0,-100.00,NW,317,2.0,21.0,72,0.00,,,-99.99,,2013-02-15 13:02:00,
2013-02-15 08:11:00,31.0,23.0,-100.00,NNW,345,2.0,21.0,72,0.00,,,-99.99,,2013-02-15 13:11:00,
2013-02-15 08:22:00,30.0,23.0,-100.00,NW,306,1.0,21.0,72,0.00,,,-99.99,,2013-02-15 13:22:00,
2013-02-15 08:32:00,31.0,23.0,-100.00,North,352,2.0,21.0,72,0.00,,,-99.99,,2013-02-15 13:32:00,
2013-02-15 08:42:00,31.0,25.0,-100.00,North,357,1.0,21.0,72,0.00,,,-99.99,,2013-02-15 13:42:00,
2013-02-15 08:52:00,32.0,25.0,-100.00,NW,317,1.0,21.0,72,0.00,,,-99.99,,2013-02-15 13:52:00,
2013-02-15 09:01:00,32.0,25.0,-100.00,NW,312,2.0,21.0,72,0.00,,,-99.99,,2013-02-15 14:01:00,
2013-02-15 09:12:00,32.0,25.0,-100.00,NW,309,2.0,21.0,72,0.00,,,-99.99,,2013-02-15 14:12:00,
2013-02-15 09:22:00,32.0,25.0,-100.00,NW,317,4.0,21.0,72,0.00,,,-99.99,,2013-02-15 14:22:00,
2013-02-15 09:32:00,32.0,25.0,-100.00,WNW,303,4.0,21.0,73,0.00,,,-99.99,,2013-02-15 14:32:00,
2013-02-15 09:42:00,32.0,25.0,-100.00,NW,319,3.0,21.0,72,0.00,,,-99.99,,2013-02-15 14:42:00,
2013-02-15 09:52:00,32.0,25.0,-100.00,NNW,334,4.0,21.0,73,0.00,,,-99.99,,2013-02-15 14:52:00,
2013-02-15 10:02:00,32.0,25.0,-100.00,North,354,5.0,21.0,72,0.00,,,-99.99,,2013-02-15 15:02:00,
2013-02-15 10:11:00,32.0,25.0,-100.00,North,352,6.0,21.0,71,0.00,,,-99.99,,2013-02-15 15:11:00,
2013-02-15 10:22:00,32.0,25.0,-100.00,NNW,334,5.0,21.0,69,0.00,,,-99.99,,2013-02-15 15:22:00,
2013-02-15 10:32:00,32.0,25.0,-100.00,NW,317,5.0,21.0,71,0.00,,,-99.99,,2013-02-15 15:32:00,
2013-02-15 10:42:00,32.0,23.0,-100.00,NNW,340,4.0,21.0,68,0.00,,,-99.99,,2013-02-15 15:42:00,
2013-02-15 10:52:00,32.0,25.0,-100.00,North,351,5.0,21.0,69,0.00,,,-99.99,,2013-02-15 15:52:00,
2013-02-15 11:02:00,32.0,23.0,-100.00,North,351,6.0,21.0,68,0.00,,,-99.99,,2013-02-15 16:02:00,
2013-02-15 11:11:00,32.0,23.0,-100.00,NNW,345,5.0,21.0,68,0.00,,,-99.99,,2013-02-15 16:11:00,
2013-02-15 11:22:00,33.0,25.0,-100.00,NNW,337,4.0,21.0,69,0.00,,,-99.99,,2013-02-15 16:22:00,
2013-02-15 11:32:00,33.0,25.0,-100.00,WNW,303,4.0,21.0,67,0.00,,,-99.99,,2013-02-15 16:32:00,
2013-02-15 11:42:00,33.0,25.0,-100.00,NNE,21,5.0,21.0,68,0.00,,,-99.99,,2013-02-15 16:42:00,
2013-02-15 11:52:00,33.0,23.0,-100.00,NNW,331,6.0,21.0,66,0.00,,,-99.99,,2013-02-15 16:52:00,
2013-02-15 12:01:00,33.0,25.0,-100.00,NW,324,6.0,21.0,67,2.83,,,-99.99,,2013-02-15 17:01:00,
2013-02-15 12:11:00,33.0,25.0,-100.00,NNW,340,6.0,21.0,68,0.00,,,-99.99,,2013-02-15 17:11:00,
2013-02-15 12:21:00,34.0,25.0,-100.00,NNW,327,6.0,21.0,68,1.14,,,-99.99,,2013-02-15 17:21:00,
2013-02-15 12:32:00,33.0,25.0,-100.00,WNW,297,4.0,21.0,69,0.00,,,-99.99,,2013-02-15 17:32:00,
2013-02-15 12:42:00,35.0,27.0,-100.00,NW,316,4.0,21.0,69,0.00,,,-99.99,,2013-02-15 17:42:00,
2013-02-15 12:52:00,33.0,25.0,-100.00,NW,314,5.0,21.0,69,0.00,,,-99.99,,2013-02-15 17:52:00,
2013-02-15 13:02:00,33.0,25.0,-100.00,North,357,4.0,21.0,69,0.00,,,-99.99,,2013-02-15 18:02:00,
2013-02-15 13:12:00,34.0,25.0,-100.00,North,0,3.0,21.0,66,0.00,,,-99.99,,2013-02-15 18:12:00,
2013-02-15 13:22:00,37.0,28.0,-100.00,NNW,340,3.0,21.0,69,0.00,,,-99.99,,2013-02-15 18:22:00,
2013-02-15 13:32:00,36.0,28.0,-100.00,North,358,3.0,21.0,71,0.00,,,-99.99,,2013-02-15 18:32:00,
2013-02-15 13:42:00,35.0,28.0,-100.00,NE,42,3.0,21.0,73,1.14,,,-99.99,,2013-02-15 18:42:00,
2013-02-15 13:52:00,35.0,30.0,-100.00,NNW,337,3.0,21.0,76,1.14,,,-99.99,,2013-02-15 18:52:00,
2013-02-15 14:02:00,36.0,30.0,-100.00,WNW,293,3.0,21.0,75,6.22,,,-99.99,,2013-02-15 19:02:00,
2013-02-15 14:11:00,36.0,30.0,-100.00,NW,316,3.0,21.0,76,0.00,,,-99.99,,2013-02-15 19:11:00,
2013-02-15 14:22:00,35.0,28.0,-100.00,NNW,343,3.0,21.0,75,2.83,,,-99.99,,2013-02-15 19:22:00,
2013-02-15 14:32:00,35.0,28.0,-100.00,North,357,6.0,21.0,76,4.53,,,-99.99,,2013-02-15 19:32:00,
2013-02-15 14:42:00,35.0,28.0,-100.00,North,351,5.0,21.0,76,0.00,,,-99.99,,2013-02-15 19:42:00,
2013-02-15 14:52:00,34.0,30.0,-100.00,NE,36,5.0,21.0,80,4.53,,,-99.99,,2013-02-15 19:52:00,
2013-02-15 15:01:00,33.0,30.0,-100.00,NNE,24,6.0,21.0,85,12.48,,,-99.99,,2013-02-15 20:01:00,
2013-02-15 15:11:00,34.0,30.0,-100.00,North,360,6.0,21.0,86,4.53,,,-99.99,,2013-02-15 20:11:00,
2013-02-15 15:21:00,33.0,32.0,-100.00,NNE,12,6.0,21.0,89,2.83,,,-99.99,,2013-02-15 20:21:00,
2013-02-15 15:32:00,33.0,32.0,-100.00,North,358,5.0,21.0,91,7.36,,,-99.99,,2013-02-15 20:32:00,
2013-02-15 15:42:00,33.0,32.0,-100.00,NNE,31,4.0,21.0,93,2.83,,,-99.99,,2013-02-15 20:42:00,
2013-02-15 15:52:00,33.0,32.0,-100.00,North,357,6.0,21.0,91,1.14,,,-99.99,,2013-02-15 20:52:00,
2013-02-15 16:02:00,33.0,32.0,-100.00,North,350,6.0,21.0,93,0.00,,,-99.99,,2013-02-15 21:02:00,
2013-02-15 16:11:00,33.0,32.0,-100.00,NNE,29,7.0,21.0,93,2.83,,,-99.99,,2013-02-15 21:11:00,
2013-02-15 16:22:00,32.0,32.0,-100.00,NNE,32,9.0,21.0,94,9.06,,,-99.99,,2013-02-15 21:22:00,
2013-02-15 16:32:00,32.0,32.0,-100.00,ENE,57,7.0,21.0,94,2.83,,,-99.99,,2013-02-15 21:32:00,
2013-02-15 16:42:00,32.0,32.0,-100.00,NE,36,8.0,21.0,94,6.22,,,-99.99,,2013-02-15 21:42:00,
2013-02-15 16:52:00,31.0,30.0,-100.00,NNE,29,9.0,21.0,95,4.53,,,-99.99,,2013-02-15 21:52:00,
2013-02-15 17:02:00,31.0,30.0,-100.00,NNE,21,9.0,21.0,95,6.22,,,-99.99,,2013-02-15 22:02:00,
2013-02-15 17:11:00,31.0,30.0,-100.00,NE,36,9.0,21.0,95,1.14,,,-99.99,,2013-02-15 22:11:00,
2013-02-15 17:22:00,31.0,30.0,-100.00,ENE,57,9.0,21.0,95,0.00,,,-99.99,,2013-02-15 22:22:00,
2013-02-15 17:32:00,31.0,30.0,-100.00,NNE,33,9.0,21.0,94,0.00,,,-99.99,,2013-02-15 22:32:00,
2013-02-15 17:42:00,31.0,30.0,-100.00,NE,39,6.0,21.0,95,0.00,,,-99.99,,2013-02-15 22:42:00,
2013-02-15 17:52:00,31.0,30.0,-100.00,ENE,62,6.0,21.0,94,0.00,,,-99.99,,2013-02-15 22:52:00,
2013-02-15 18:02:00,31.0,30.0,-100.00,NE,53,8.0,21.0,94,0.00,,,-99.99,,2013-02-15 23:02:00,
2013-02-15 18:11:00,31.0,30.0,-100.00,NE,35,8.0,21.0,93,0.00,,,-99.99,,2013-02-15 23:11:00,
2013-02-15 18:21:00,31.0,30.0,-100.00,NE,38,6.0,21.0,93,0.00,,,-99.99,,2013-02-15 23:21:00,
2013-02-15 18:32:00,30.0,28.0,-100.00,NNE,32,8.0,21.0,91,0.00,,,-99.99,,2013-02-15 23:32:00,
2013-02-15 18:42:00,30.0,28.0,-100.00,NE,48,9.0,21.0,90,0.00,,,-99.99,,2013-02-15 23:42:00,
2013-02-15 18:52:00,31.0,28.0,-100.00,NE,53,8.0,21.0,90,0.00,,,-99.99,,2013-02-15 23:52:00,
2013-02-15 19:02:00,30.0,28.0,-100.00,ENE,57,6.0,21.0,90,0.00,,,-99.99,,2013-02-16 00:02:00,
2013-02-15 19:11:00,31.0,28.0,-100.00,NNE,28,5.0,21.0,90,0.00,,,-99.99,,2013-02-16 00:11:00,
2013-02-15 19:22:00,29.0,27.0,-100.00,NNE,32,4.0,21.0,90,0.00,,,-99.99,,2013-02-16 00:22:00,
2013-02-15 19:32:00,28.0,27.0,-100.00,NNE,31,4.0,21.0,90,0.00,,,-99.99,,2013-02-16 00:32:00,
2013-02-15 19:42:00,28.0,27.0,-100.00,NNE,25,2.0,21.0,90,0.00,,,-99.99,,2013-02-16 00:42:00,
2013-02-15 19:51:00,28.0,27.0,-100.00,NNE,24,2.0,21.0,90,0.00,,,-99.99,,2013-02-16 00:51:00,
2013-02-15 20:02:00,28.0,27.0,-100.00,North,360,2.0,21.0,89,0.00,,,-99.99,,2013-02-16 01:02:00,
2013-02-15 20:11:00,28.0,27.0,-100.00,NNE,33,4.0,21.0,89,0.00,,,-99.99,,2013-02-16 01:11:00,
2013-02-15 20:21:00,27.0,25.0,-100.00,North,352,2.0,21.0,89,0.00,,,-99.99,,2013-02-16 01:21:00,
2013-02-15 20:32:00,27.0,25.0,-100.00,NNE,25,2.0,21.0,89,0.00,,,-99.99,,2013-02-16 01:32:00,
2013-02-15 20:42:00,27.0,25.0,-100.00,North,357,1.0,21.0,89,0.00,,,-99.99,,2013-02-16 01:42:00,
2013-02-15 20:52:00,27.0,25.0,-100.00,North,350,2.0,21.0,89,0.00,,,-99.99,,2013-02-16 01:52:00,
2013-02-15 21:01:00,27.0,25.0,-100.00,NNW,341,2.0,21.0,89,0.00,,,-99.99,,2013-02-16 02:01:00,
2013-02-15 21:11:00,27.0,25.0,-100.00,North,350,4.0,21.0,89,0.00,,,-99.99,,2013-02-16 02:11:00,
2013-02-15 21:22:00,27.0,25.0,-100.00,NNE,32,5.0,21.0,86,0.00,,,-99.99,,2013-02-16 02:22:00,
2013-02-15 21:32:00,27.0,25.0,-100.00,North,351,6.0,21.0,85,0.00,,,-99.99,,2013-02-16 02:32:00,
2013-02-15 21:42:00,28.0,23.0,-100.00,North,1,7.0,21.0,82,0.00,,,-99.99,,2013-02-16 02:42:00,
2013-02-15 21:52:00,28.0,23.0,-100.00,North,9,8.0,21.0,78,0.00,,,-99.99,,2013-02-16 02:52:00,
2013-02-15 22:02:00,28.0,23.0,-100.00,North,355,9.0,21.0,76,0.00,,,-99.99,,2013-02-16 03:02:00,
2013-02-15 22:11:00,28.0,21.0,-100.00,East,93,10.0,10.0,73,0.00,,,-99.99,,2013-02-16 03:11:00,
2013-02-15 22:21:00,27.0,21.0,-100.00,NNE,32,8.0,10.0,76,0.00,,,-99.99,,2013-02-16 03:21:00,
2013-02-15 22:32:00,27.0,21.0,-100.00,NNE,19,7.0,10.0,76,0.00,,,-99.99,,2013-02-16 03:32:00,
2013-02-15 22:42:00,27.0,21.0,-100.00,North,5,9.0,12.0,75,0.00,,,-99.99,,2013-02-16 03:42:00,
2013-02-15 22:52:00,29.0,23.0,-100.00,NNW,345,8.0,12.0,73,0.00,,,-99.99,,2013-02-16 03:52:00,
2013-02-15 23:01:00,29.0,23.0,-100.00,North,4,9.0,12.0,72,0.00,,,-99.99,,2013-02-16 04:01:00,
2013-02-15 23:11:00,29.0,21.0,-100.00,NNW,348,7.0,12.0,72,0.00,,,-99.99,,2013-02-16 04:11:00,
2013-02-15 23:21:00,28.0,21.0,-100.00,North,7,6.0,12.0,72,0.00,,,-99.99,,2013-02-16 04:21:00,
2013-02-15 23:32:00,28.0,21.0,-100.00,NNE,29,7.0,12.0,73,0.00,,,-99.99,,2013-02-16 04:32:00,
2013-02-15 23:42:00,28.0,21.0,-100.00,North,1,8.0,12.0,72,0.00,,,-99.99,,2013-02-16 04:42:00,
2013-02-15 23:52:00,28.0,21.0,-100.00,NNE,26,7.0,12.0,73,0.00,,,-99.99,,2013-02-16 04:52:00,